Temperature
22 22 22 22 22 21 21 21 20 20 20 20 20 19 19 19 19 19 19 19 19 19 18 18 18 18 18 18 18 18 18 18 18 18 18 18 18 18 18 18 18 18 18
22 22 22 22 22 21 21 21 20 20 20 20 20 19 19 19 19 19 19 19 19 19 19 18 18 18 18 18 18 18 18 18 18 18 18 17 18 18 18 18 18 17 17
22 22 22 22 22 21 21 21 21 20 20 20 20 19 19 19 19 19 18 18 18 19 19 18 18 18 18 18 18 18 18 18 18 18 18 17 17 17 18 18 18 17 17
23 23 22 22 22 22 21 21 21 20 20 20 20 19 19 19 19 18 18 18 18 18 18 18 18 18 18 18 18 18 18 18 18 18 18 18 18 17 17 17 17 17 17
23 23 22 22 22 22 21 21 21 20 20 20 19 19 19 19 19 18 18 18 18 18 18 18 18 18 18 18 18 18 18 18 18 18 18 18 17 17 17 17 17 17 17
23 23 22 22 22 21 21 21 21 20 20 20 19 19 19 19 18 18 18 18 18 18 18 18 18 18 18 18 18 18 17 17 17 17 17 17 17 17 17 17 17 17 17
23 23 22 22 22 21 21 21 21 20 20 20 19 19 19 19 18 18 18 18 18 18 18 18 18 18 18 18 17 17 17 17 17 17 17 17 17 17 17 17 17 17 17
23 23 22 22 22 21 21 21 21 20 20 20 19 19 19 18 18 18 18 18 18 17 17 17 17 17 17 17 17 17 17 17 17 17 17 17 17 17 17 17 17 17 17
23 23 22 22 22 21 21 21 21 20 20 20 19 19 19 18 18 18 18 18 18 17 17 17 17 17 17 17 17 17 17 17 17 17 17 17 17 17 17 17 17 17 16
23 23 22 22 22 22 21 21 20 20 20 20 19 19 19 18 18 18 18 18 17 17 17 17 17 17 17 17 17 17 17 17 17 17 17 17 17 17 17 17 17 17 16
23 23 23 22 22 21 21 21 20 20 20 20 19 19 19 18 18 18 18 17 17 17 17 17 17 17 17 17 17 17 17 16 16 16 16 16 16 16 16 16 16 16 16
23 23 23 22 22 21 21 21 20 20 20 19 19 19 19 18 18 18 17 17 17 17 17 16 16 16 16 16 16 16 16 16 16 16 16 16 16 16 16 16 16 16 16
23 22 22 22 22 21 21 21 20 20 19 19 19 19 18 18 18 18 17 17 17 17 16 16 16 16 16 16 16 16 16 16 16 16 16 16 16 16 16 16 16 16 16
22 22 22 22 21 21 21 20 20 20 19 19 18 18 18 18 18 17 17 17 17 16 16 16 16 16 16 16 15 15 15 15 15 15 15 15 15 15 15 15 15 15 15
22 22 21 21 21 21 21 20 20 19 19 19 18 18 18 17 17 17 17 16 16 16 16 16 16 16 15 15 15 15 15 15 15 15 15 15 15 15 15 15 15 15 15
21 21 21 21 21 21 20 20 19 19 19 18 18 18 18 17 17 17 16 16 16 16 16 16 16 15 15 15 15 15 15 15 15 15 15 15 15 15 15 15 15 15 15
21 21 21 21 21 20 20 20 19 19 19 18 18 18 17 17 17 17 16 16 16 16 16 16 15 15 15 15 15 15 15 15 15 15 15 15 14 14 15 15 15 14 14
21 21 21 20 20 20 20 19 19 19 18 18 18 17 17 17 17 16 16 16 16 16 16 15 15 15 15 15 15 15 15 15 15 15 14 14 14 14 14 14 14 14 14
21 20 20 20 20 19 19 19 19 18 18 18 17 17 17 17 16 16 16 16 16 16 16 15 15 15 15 15 15 14 14 14 15 15 14 14 14 14 14 14 14 14 14
20 20 20 20 19 19 19 18 18 18 18 17 17 17 16 16 16 16 16 16 16 16 15 15 15 15 15 15 14 14 14 14 14 14 14 14 14 14 14 14 14 14 14
20 20 19 19 19 18 18 18 18 18 17 17 17 16 16 16 16 16 16 16 15 15 15 15 15 15 14 14 14 14 14 14 14 14 14 14 14 14 14 14 14 14 14
19 19 19 18 18 18 18 18 17 17 17 17 16 16 16 16 16 16 16 15 15 15 15 15 15 14 14 14 14 14 14 14 14 14 14 14 14 14 14 13 13 13 13
19 19 18 18 18 18 17 17 17 17 16 16 16 16 16 16 16 15 15 15 15 14 14 14 14 14 14 14 14 14 14 13 13 14 13 13 13 13 13 13 13 13 13
19 18 18 18 17 17 17 17 17 16 16 16 16 16 15 15 15 15 15 14 14 14 14 14 14 14 13 13 13 13 13 13 13 13 13 13 13 13 13 13 13 13 13
18 18 17 17 17 17 16 16 16 16 16 16 15 15 15 15 15 15 14 14 14 14 14 13 13 13 13 13 13 13 13 13 13 13 12 12 12 12 12 12 12 12 12
17 17 17 16 16 16 16 16 15 15 15 15 15 15 15 15 14 14 14 14 14 14 13 13 13 13 13 13 13 12 12 12 12 12 12 12 12 12 11 11 11 11 11
Wind_Speed
8 8 8 8 7 5 5 3 3 2 2 1 1 1 0 0 0 1 1 1 1 1 1 0 0 0 0 1 1 1 0 0 1 1 1 2 1 1 2 2 3 4 7
7 7 7 7 6 6 5 4 3 2 2 1 1 1 1 1 1 1 1 1 1 1 1 1 0 0 0 1 1 1 1 1 0 1 1 1 3 2 2 2 3 4 4
11 9 8 7 6 6 5 4 3 3 2 1 1 2 2 2 2 2 1 1 0 0 0 0 0 0 0 0 1 1 2 1 1 1 2 2 2 2 2 2 3 3 4
10 10 9 8 8 7 6 4 4 3 2 2 3 3 2 1 1 1 1 1 1 0 0 0 0 0 0 1 1 1 2 2 1 1 1 2 3 2 1 2 2 3 4
11 11 10 9 8 7 6 5 4 3 3 3 3 3 2 1 0 1 2 1 2 1 1 0 0 1 1 1 1 1 1 1 2 2 1 1 1 1 2 2 2 2 3
9 9 9 8 7 6 6 5 5 3 3 3 3 3 2 1 2 2 2 1 2 2 1 1 1 1 2 2 2 2 1 1 2 2 1 1 1 2 2 2 2 2 3
9 9 9 8 8 7 7 6 6 4 3 3 3 2 2 1 1 1 0 1 1 1 2 2 2 2 2 2 1 1 1 1 2 2 2 2 2 2 2 2 1 1 2
9 10 10 10 9 8 7 6 6 5 4 4 3 2 2 1 1 0 0 0 1 1 2 2 2 2 1 1 1 1 2 1 1 2 2 2 2 2 2 2 2 1 1
10 9 9 10 9 8 7 7 7 6 5 4 3 2 2 1 1 0 0 0 1 1 2 2 2 2 2 1 1 1 2 1 1 2 1 1 2 2 1 2 3 3 2
8 8 8 8 8 8 7 7 7 6 6 5 4 3 2 1 1 1 0 1 1 1 2 2 2 2 2 2 1 2 2 1 2 2 1 2 2 2 1 1 1 2 3
8 7 7 7 7 7 7 6 6 6 5 5 4 3 2 2 1 1 1 1 1 1 1 2 1 1 1 1 1 2 2 2 2 2 2 2 2 1 2 1 1 1 2
7 7 7 7 7 7 6 7 6 6 6 5 4 3 2 2 1 2 1 1 1 1 1 1 1 1 1 1 1 2 2 2 2 3 2 3 2 2 2 1 2 2 2
6 6 6 6 7 7 6 6 6 5 5 4 4 3 2 2 2 2 2 1 1 1 1 1 1 2 2 2 2 2 2 2 3 2 2 3 2 2 2 2 2 3 3
6 6 5 5 5 6 6 6 6 6 5 5 4 4 3 3 3 3 2 2 1 1 1 1 2 2 2 2 2 3 3 3 3 3 3 3 2 3 3 3 3 3 2
6 5 5 4 4 4 4 5 5 5 5 4 4 4 3 3 2 2 2 2 2 1 2 2 2 2 2 3 3 3 3 3 4 4 3 3 3 4 3 3 3 2 2
7 5 5 4 4 4 5 4 4 4 4 4 3 3 3 2 2 2 2 2 2 2 2 2 3 3 4 5 4 3 3 3 3 4 4 4 4 5 5 5 4 3 3
6 5 4 4 3 3 4 5 4 4 4 4 3 3 3 3 3 3 2 3 3 3 3 4 3 4 5 5 5 4 3 3 4 4 4 4 4 4 3 5 5 5 6
6 5 3 4 3 3 3 3 4 4 4 3 3 3 3 3 3 2 3 4 3 3 4 4 4 4 5 5 5 5 3 3 4 4 4 4 5 5 4 4 4 5 6
7 6 5 5 4 4 3 4 3 3 2 2 2 3 4 3 3 3 4 4 3 3 4 3 4 4 5 5 5 4 2 3 5 5 4 4 5 7 6 4 5 6 7
7 7 7 6 5 3 4 4 3 2 0 2 2 2 2 3 4 4 4 3 3 3 3 3 3 3 4 5 5 4 2 3 4 4 4 6 6 7 6 4 5 7 7
7 7 6 5 3 3 4 4 2 0 2 1 1 2 2 3 3 3 3 2 2 2 3 3 3 3 4 4 5 4 2 3 4 4 4 5 8 8 8 6 5 8 7
6 6 6 4 2 3 4 3 1 2 1 1 2 2 3 3 2 2 2 2 2 2 3 3 3 3 3 4 5 6 5 5 4 5 4 5 7 7 7 5 6 7 5
5 5 5 4 2 2 4 3 1 1 1 1 2 3 3 2 2 2 2 1 1 2 3 3 3 4 4 4 6 7 7 6 4 4 6 7 6 5 5 6 7 5 2
4 4 4 4 2 2 2 2 1 0 1 2 2 2 2 3 3 2 2 2 2 2 3 3 3 3 3 4 4 4 4 4 4 4 5 5 5 3 4 5 4 2 2
3 4 4 4 3 2 1 1 1 0 0 1 3 2 2 2 3 3 2 3 3 4 3 3 3 3 4 6 5 3 3 3 3 2 2 2 3 3 3 3 3 3 2
3 3 3 3 2 1 1 1 1 1 1 1 3 2 2 2 2 3 3 4 3 4 3 4 3 3 5 7 6 5 5 4 2 1 1 2 2 3 3 3 3 3 2
Wind_Direction
170 159 155 151 144 139 131 127 122 121 104 81 83 89 279 252 267 232 225 216 218 181 157 168 330 81 134 243 230 173 88 262 115 76 358 342 322 210 210 204 190 197 203
165 165 158 152 150 149 145 133 134 134 133 146 169 173 181 205 192 278 283 237 226 212 175 151 227 235 135 337 313 172 162 251 156 137 87 348 334 310 243 219 201 206 195
174 176 171 162 152 154 158 153 147 134 133 129 91 66 55 35 29 360 345 308 259 126 126 164 69 33 114 248 268 216 190 229 264 171 153 158 228 287 296 243 223 214 204
176 176 174 165 165 164 157 147 143 133 127 119 106 104 104 104 257 263 294 321 312 357 22 98 81 38 18 248 260 226 208 187 250 267 216 192 180 182 256 294 258 234 219
182 177 172 172 170 164 159 157 143 136 128 117 122 111 98 133 335 19 28 6 342 332 347 21 300 322 317 288 293 284 225 190 205 224 229 225 227 195 177 248 280 266 246
175 169 164 157 159 163 161 158 147 146 142 126 119 119 114 76 56 37 33 4 342 342 333 304 308 300 309 298 286 272 244 236 226 229 215 192 189 212 186 213 251 252 258
168 164 159 159 164 168 166 165 157 154 149 135 131 133 136 114 104 81 45 359 347 334 317 322 313 312 298 293 309 318 288 259 243 234 239 230 221 199 185 180 215 241 270
172 173 169 168 169 169 169 166 162 160 154 146 150 135 128 127 118 109 102 331 281 290 317 335 331 331 329 334 344 341 306 303 270 268 251 252 258 224 195 181 172 181 293
177 179 174 169 168 168 173 173 166 164 163 161 156 138 132 123 107 87 80 331 304 318 343 335 341 343 353 4 10 347 319 312 289 281 270 262 271 258 230 194 169 164 198
173 175 173 170 170 171 173 173 167 170 172 167 166 153 161 172 171 125 7 321 314 331 345 336 336 340 347 355 2 339 323 326 309 299 310 300 280 283 268 232 184 160 170
173 176 176 175 170 171 170 169 170 168 165 168 167 160 166 172 161 187 241 272 297 312 326 321 326 323 326 329 339 325 337 335 321 322 325 300 291 310 305 263 194 179 163
162 169 169 166 166 170 175 178 178 176 178 175 166 167 170 166 187 240 249 254 288 290 286 297 307 297 312 309 303 309 328 318 312 309 318 304 299 301 297 288 247 229 206
147 150 155 167 171 176 179 180 177 175 171 167 165 172 188 189 211 246 256 260 268 284 303 310 279 279 290 295 283 275 286 288 285 287 289 289 284 287 286 269 260 247 233
144 142 151 163 172 179 178 175 175 170 163 162 167 188 208 212 218 234 247 249 247 243 268 272 258 256 267 278 283 280 277 281 282 281 276 277 263 267 271 273 263 251 233
134 142 147 153 158 161 173 175 173 171 164 160 169 193 204 209 216 233 252 258 256 260 254 273 275 267 269 278 289 283 283 277 280 282 276 271 273 276 269 271 256 245 236
144 147 145 145 153 161 167 163 162 162 152 159 182 189 188 197 220 235 243 256 265 271 265 263 262 271 283 291 285 278 274 275 274 280 279 276 272 280 278 277 269 239 228
145 145 149 151 148 144 149 148 151 150 148 161 182 185 190 201 221 234 240 247 255 264 267 265 259 261 273 282 278 272 264 266 268 269 271 281 286 277 276 281 279 267 252
141 141 135 117 108 110 112 133 132 136 152 173 191 198 197 216 229 233 244 250 252 257 258 261 257 262 284 284 274 276 267 266 269 265 259 261 276 276 260 269 279 274 268
138 135 126 116 103 103 118 117 116 119 129 183 218 224 212 215 227 236 246 246 251 261 262 261 253 256 281 285 278 274 271 274 278 276 272 262 268 274 263 256 270 279 282
124 123 119 115 117 128 121 106 100 92 115 252 253 250 231 221 230 240 248 252 253 258 266 272 259 252 265 282 280 271 264 275 284 287 280 270 275 281 270 248 254 269 276
125 124 122 120 128 128 114 108 98 151 253 275 306 297 276 253 241 245 257 268 268 282 279 275 275 269 267 281 284 276 262 259 270 279 285 289 290 283 275 256 249 257 265
126 125 122 123 124 121 119 117 155 261 292 347 347 319 300 285 288 256 263 277 283 290 287 281 286 285 280 277 280 275 267 264 252 266 277 285 291 291 286 273 271 271 271
134 133 135 134 131 135 130 134 233 328 26 11 334 317 315 304 298 268 265 278 280 279 283 279 280 293 299 295 291 286 276 273 264 269 283 294 296 295 293 283 278 276 278
139 138 136 145 162 163 140 161 196 68 40 355 326 329 332 322 320 293 252 238 243 254 274 276 277 289 302 307 312 306 294 287 291 293 298 301 308 307 297 301 300 281 266
138 136 144 161 184 182 185 216 246 100 62 330 311 306 305 302 306 297 265 248 238 225 225 248 256 273 289 289 290 290 297 289 285 308 335 352 349 344 332 322 315 312 321
138 136 140 151 177 179 195 251 238 162 145 313 312 309 304 300 300 303 313 320 309 295 261 245 247 260 269 290 302 300 297 298 310 70 326 303 302 306 311 313 316 322 316
Height
1529 1529 1530 1531 1531 1532 1532 1532 1532 1532 1531 1531 1531 1530 1530 1530 1529 1529 1529 1528 1528 1527 1526 1526 1525 1525 1524 1523 1523 1522 1521 1521 1521 1520 1520 1520 1520 1520 1521 1521 1521 1521 1521
1528 1529 1530 1530 1531 1531 1532 1532 1532 1532 1532 1531 1531 1531 1530 1530 1530 1529 1529 1528 1528 1527 1526 1525 1525 1524 1523 1523 1522 1521 1521 1520 1520 1520 1519 1519 1520 1519 1519 1520 1520 1520 1520
1526 1528 1529 1529 1530 1531 1531 1531 1531 1532 1532 1532 1531 1531 1530 1530 1530 1529 1528 1528 1527 1526 1526 1525 1524 1523 1523 1522 1521 1521 1520 1519 1519 1519 1519 1519 1518 1517 1518 1518 1518 1518 1518
1525 1526 1527 1528 1529 1530 1531 1531 1531 1531 1532 1531 1531 1530 1530 1529 1529 1529 1528 1528 1527 1526 1525 1525 1524 1523 1522 1521 1521 1520 1519 1519 1518 1518 1518 1518 1517 1517 1516 1516 1516 1516 1516
1523 1524 1525 1527 1528 1529 1530 1531 1531 1531 1531 1531 1531 1530 1529 1529 1529 1528 1528 1527 1526 1526 1525 1524 1523 1522 1521 1520 1520 1519 1518 1518 1517 1516 1516 1516 1516 1515 1514 1513 1513 1514 1514
1521 1523 1525 1526 1528 1529 1530 1530 1530 1530 1531 1530 1530 1530 1529 1529 1528 1527 1527 1526 1525 1525 1524 1523 1522 1521 1520 1519 1518 1518 1517 1516 1516 1515 1515 1514 1513 1513 1512 1511 1510 1510 1511
1520 1521 1523 1525 1526 1527 1528 1529 1529 1529 1530 1530 1529 1529 1529 1528 1528 1527 1526 1525 1524 1524 1523 1522 1521 1519 1518 1517 1517 1516 1515 1515 1514 1514 1513 1513 1512 1511 1511 1510 1509 1508 1509
1519 1520 1521 1523 1524 1526 1527 1528 1528 1528 1529 1529 1529 1529 1528 1528 1527 1526 1525 1524 1523 1523 1522 1521 1519 1518 1517 1516 1515 1514 1514 1513 1512 1512 1511 1511 1510 1510 1509 1508 1507 1506 1507
1517 1519 1520 1521 1523 1525 1526 1527 1527 1528 1528 1528 1528 1528 1527 1527 1526 1525 1524 1523 1523 1522 1521 1520 1519 1517 1516 1515 1514 1513 1512 1511 1510 1510 1509 1509 1508 1507 1507 1506 1505 1506 1505
1516 1518 1520 1521 1522 1523 1525 1526 1526 1527 1527 1527 1527 1526 1526 1526 1525 1524 1523 1522 1521 1520 1519 1518 1517 1516 1515 1514 1512 1511 1510 1509 1509 1508 1507 1506 1505 1505 1505 1504 1503 1503 1503
1515 1517 1519 1520 1522 1523 1524 1525 1525 1525 1525 1525 1525 1525 1524 1524 1524 1523 1522 1521 1520 1519 1518 1517 1516 1514 1513 1512 1511 1510 1509 1508 1507 1506 1505 1504 1503 1502 1502 1501 1501 1501 1501
1514 1516 1518 1519 1521 1521 1522 1523 1523 1523 1523 1523 1523 1523 1523 1523 1522 1521 1520 1520 1518 1517 1516 1515 1514 1513 1512 1510 1509 1508 1507 1506 1505 1504 1503 1502 1501 1500 1500 1499 1499 1499 1499
1513 1515 1516 1517 1519 1520 1520 1521 1522 1522 1522 1522 1521 1521 1522 1521 1520 1520 1519 1518 1517 1516 1514 1513 1512 1511 1510 1508 1507 1506 1505 1504 1503 1502 1501 1500 1499 1498 1497 1497 1496 1496 1496
1512 1513 1515 1516 1517 1518 1519 1520 1520 1520 1520 1520 1520 1520 1520 1519 1519 1518 1517 1516 1515 1514 1513 1511 1510 1509 1508 1507 1505 1504 1503 1502 1501 1500 1499 1498 1497 1496 1495 1494 1494 1493 1493
1512 1513 1513 1514 1515 1516 1518 1518 1519 1519 1519 1519 1519 1518 1518 1517 1517 1516 1515 1514 1513 1512 1511 1510 1508 1507 1506 1504 1503 1502 1500 1499 1498 1497 1496 1495 1494 1493 1493 1492 1491 1491 1490
1510 1512 1513 1514 1514 1515 1516 1517 1517 1518 1518 1518 1517 1516 1516 1515 1514 1513 1513 1512 1511 1510 1509 1507 1506 1505 1503 1502 1501 1499 1498 1496 1495 1494 1493 1492 1491 1490 1490 1489 1488 1488 1487
1509 1510 1512 1513 1514 1514 1514 1515 1516 1517 1517 1516 1515 1515 1514 1513 1512 1511 1510 1509 1508 1507 1506 1505 1504 1502 1501 1499 1498 1497 1495 1494 1492 1491 1490 1489 1487 1487 1486 1485 1484 1484 1483
1508 1510 1511 1512 1513 1514 1514 1514 1515 1515 1514 1514 1513 1513 1512 1511 1510 1509 1508 1507 1506 1504 1503 1502 1501 1499 1498 1496 1495 1494 1492 1491 1489 1488 1487 1485 1484 1483 1482 1481 1480 1479 1479
1507 1509 1510 1511 1512 1512 1512 1513 1513 1513 1512 1512 1512 1511 1510 1509 1508 1507 1506 1505 1503 1502 1501 1499 1498 1496 1494 1493 1492 1490 1489 1487 1486 1485 1483 1482 1480 1479 1478 1477 1476 1475 1474
1507 1508 1509 1510 1510 1510 1511 1511 1511 1511 1510 1510 1510 1509 1508 1507 1506 1505 1504 1502 1501 1499 1498 1497 1495 1493 1491 1490 1489 1487 1485 1483 1482 1481 1479 1478 1477 1475 1474 1473 1472 1470 1469
1506 1507 1508 1509 1509 1510 1510 1509 1509 1509 1509 1508 1508 1507 1506 1505 1504 1503 1502 1500 1499 1497 1495 1494 1492 1490 1489 1487 1485 1483 1481 1479 1478 1477 1475 1474 1473 1472 1470 1469 1468 1466 1466
1505 1506 1507 1508 1508 1508 1508 1508 1508 1508 1507 1506 1505 1504 1503 1503 1501 1500 1499 1497 1496 1494 1492 1490 1488 1487 1485 1483 1482 1480 1478 1476 1474 1473 1472 1470 1469 1468 1466 1465 1463 1463 1462
1504 1505 1506 1507 1507 1507 1507 1506 1506 1506 1505 1504 1503 1502 1501 1500 1499 1497 1496 1494 1493 1491 1489 1487 1485 1483 1481 1480 1478 1476 1474 1472 1471 1469 1468 1467 1465 1464 1462 1461 1460 1459 1457
1503 1504 1505 1505 1505 1506 1505 1505 1504 1504 1503 1501 1500 1499 1498 1497 1496 1494 1493 1491 1490 1488 1486 1484 1482 1480 1478 1476 1474 1472 1470 1468 1467 1466 1464 1463 1461 1459 1458 1456 1455 1454 1453
1502 1503 1503 1503 1503 1503 1503 1502 1502 1501 1500 1499 1498 1497 1495 1494 1493 1492 1490 1488 1487 1485 1484 1481 1480 1477 1475 1473 1472 1469 1467 1465 1464 1462 1460 1459 1457 1455 1454 1452 1451 1451 1449
1501 1501 1501 1501 1501 1501 1501 1500 1499 1498 1497 1496 1495 1493 1492 1491 1490 1489 1487 1486 1484 1483 1481 1479 1477 1475 1473 1471 1468 1466 1464 1462 1461 1459 1456 1455 1453 1452 1451 1449 1448 1447 1446